Location: Unspecified
(42.0334°N, 93.6656°W)
Time: 06:50:41
(UTC-05:00)

Amateur Radio Satellites - All Passes

Search period start: 29 September 2016 06:20
Search period end: 30 September 2016 06:20
Location: Unspecified, 42.0334°N, 93.6656°W

Satellite Date Start Highest point End Downlink Frequencies (MHz)
Time Altitude Azimuth
CUTE-I 29 Sep 06:26:54 06:30:19 17° 91° (E) 06:33:42 437.470
Cubesat XI-IV 29 Sep 06:27:12 06:30:36 17° 91° (E) 06:33:58 437.490
BRITE-PL 29 Sep 06:33:59 06:38:39 50° 98° (E) 06:42:55 437.365/2234.400
AO-85 29 Sep 06:37:44 06:41:44 50° 242° (WSW) 06:45:30 145.980
O/OREOS (USA 219) 29 Sep 06:38:37 06:41:45 18° 100° (E) 06:44:53 437.305
NOAA 18 29 Sep 07:18:28 07:23:35 39° 98° (E) 07:28:40 137.9125
HO-68 29 Sep 07:27:10 07:27:51 10° 85° (E) 07:28:32 435.675
STRAND 1 29 Sep 07:27:52 07:32:53 65° 73° (ENE) 07:37:58 437.568
CUSAT 1 29 Sep 07:28:03 07:35:05 41° 272° (W) 07:41:00 437.405
DANDE 29 Sep 07:28:21 07:36:50 88° 263° (W) 07:44:35 436.750
HORYU 2 29 Sep 07:32:42 07:36:16 24° 294° (WNW) 07:39:50 437.375
LilacSat-2 29 Sep 07:37:37 07:41:28 86° 283° (WNW) 07:45:19 437.200
NOAA 15 29 Sep 07:44:27 07:49:47 80° 286° (WNW) 07:55:03 137.62
AO-7 29 Sep 07:45:24 07:49:43 15° 315° (NW) 07:54:02 29.400- 29.500
GOMX 1 29 Sep 07:54:21 07:58:38 54° 287° (WNW) 08:02:43 467.674
GONETS M04 29 Sep 07:55:17 08:02:14 27° 81° (E) 08:09:11
RS-15 29 Sep 08:00:10 08:08:15 21° 262° (W) 08:16:15 29.354- 29.394
CUTE-I 29 Sep 08:05:29 08:10:46 63° 288° (WNW) 08:16:04 437.470
Cubesat XI-IV 29 Sep 08:05:48 08:11:06 64° 288° (WNW) 08:16:23 437.490
DOVE 4 29 Sep 08:08:16 08:12:29 87° 109° (ESE) 08:16:37 437.250
BRITE-PL 29 Sep 08:13:32 08:16:39 18° 298° (WNW) 08:19:37 437.365/2234.400
PRISM 29 Sep 08:15:57 08:18:47 18° 65° (ENE) 08:21:38 437.425
O/OREOS (USA 219) 29 Sep 08:16:24 08:20:46 44° 297° (WNW) 08:25:12 437.305
COMPASS 1 29 Sep 08:30:01 08:31:51 13° 90° (E) 08:33:41 437.405
CUBEBUG 2 29 Sep 08:32:56 08:33:50 11° 90° (E) 08:34:44 437.445
Cosmos 2499 29 Sep 08:37:44 08:44:08 37° 88° (E) 08:50:29 435.465 / 435.565
UWE-3 29 Sep 08:48:17 08:48:50 10° 89° (E) 08:49:22 435.000/436.395/437.385
NOAA 18 29 Sep 08:59:25 09:04:05 30° 295° (WNW) 09:08:45 137.9125
SEEDS 29 Sep 08:59:35 09:03:37 40° 98° (E) 09:07:36 437.485
CUTE 1.7 + AOD 2 29 Sep 09:00:45 09:05:01 60° 100° (E) 09:09:15 437.475
CANX-2 29 Sep 09:02:17 09:06:36 73° 101° (E) 09:10:53 2200.000
BEESAT 2 29 Sep 09:06:15 09:08:40 15° 41° (NE) 09:11:05 435.950
Oscar 11 29 Sep 09:09:17 09:10:06 10° 89° (E) 09:10:55 145.826/435.025
CINEMA 3 29 Sep 09:09:21 09:13:32 79° 284° (WNW) 09:17:48 145.822/145.860
STRAND 1 29 Sep 09:09:36 09:12:31 15° 270° (W) 09:15:26 437.568
HO-68 29 Sep 09:09:41 09:16:49 67° 104° (ESE) 09:23:55 435.675
DANDE 29 Sep 09:12:58 09:18:25 20° 281° (W) 09:23:38 436.750
ZACube-1 29 Sep 09:13:00 09:14:56 13° 90° (E) 09:16:53 437.345
AAUSAT CUBESAT 2 29 Sep 09:17:57 09:21:47 33° 97° (E) 09:25:35 437.432
NOAA 15 29 Sep 09:27:00 09:28:40 11° 304° (WNW) 09:30:20 137.62
ANTELSAT 29 Sep 09:44:08 09:47:18 21° 66° (ENE) 09:50:28 437.575/2403.000
BEESAT 3 29 Sep 09:44:10 09:48:06 57° 55° (NE) 09:52:01 437.485
GONETS M04 29 Sep 09:49:30 09:58:16 67° 281° (W) 10:07:08
PRISM 29 Sep 09:49:50 09:53:46 40° 261° (W) 09:57:44 437.425
TIGRISAT 29 Sep 10:03:32 10:07:16 31° 69° (ENE) 10:11:01 435.000
COMPASS 1 29 Sep 10:03:36 10:07:45 56° 286° (WNW) 10:11:52 437.405
FUNcube-1 29 Sep 10:04:24 10:08:33 42° 99° (E) 10:12:45 145.935
CUBEBUG 2 29 Sep 10:06:35 10:10:51 69° 285° (WNW) 10:15:15 437.445
UWE-3 29 Sep 10:21:24 10:25:43 73° 285° (WNW) 10:30:08 435.000/436.395/437.385
DELFI C3 29 Sep 10:25:01 10:28:32 28° 96° (E) 10:31:59 145.870
Cosmos 2499 29 Sep 10:30:40 10:37:11 37° 287° (WNW) 10:43:41 435.465 / 435.565
SEEDS 29 Sep 10:36:02 10:39:01 19° 294° (WNW) 10:42:00 437.485
CUTE 1.7 + AOD 2 29 Sep 10:38:15 10:40:21 13° 297° (WNW) 10:42:27 437.475
CANX-2 29 Sep 10:40:28 10:41:51 11° 298° (WNW) 10:43:13 2200.000
Oscar 11 29 Sep 10:42:21 10:46:42 71° 285° (WNW) 10:51:02 145.826/435.025
BEESAT 2 29 Sep 10:42:54 10:46:55 68° 240° (WSW) 10:50:53 435.950
UNISAT 6 29 Sep 10:44:04 10:48:20 87° 257° (WSW) 10:52:38 437.425
ZACube-1 29 Sep 10:47:17 10:51:33 60° 286° (WNW) 10:55:55 437.345
JAS-2 29 Sep 10:52:29 10:57:33 23° 57° (ENE) 11:03:01 435.910
AAUSAT CUBESAT 2 29 Sep 10:53:53 10:57:03 21° 293° (WNW) 11:00:12 437.432
HUMSAT D 29 Sep 10:54:06 10:57:55 31° 96° (E) 11:01:44 437.325/437.525
QB50P2 29 Sep 10:57:49 11:00:46 19° 66° (ENE) 11:03:43 145.880/145.840
HO-68 29 Sep 10:58:21 11:03:57 26° 302° (WNW) 11:09:32 435.675
POLYITAN 1 29 Sep 11:00:01 11:02:57 19° 66° (ENE) 11:05:54 437.675
PHONESAT 2.4 29 Sep 11:07:24 11:10:03 31° 161° (SSE) 11:12:43 2401.200-2431.200
ANTELSAT 29 Sep 11:19:54 11:23:47 35° 262° (W) 11:27:43 437.575/2403.000
BEESAT 3 29 Sep 11:23:27 11:25:16 13° 251° (WSW) 11:27:05 437.485
BUGSAT 1 29 Sep 11:31:59 11:34:16 15° 64° (ENE) 11:36:32 437.445
DUCHIFAT 1 29 Sep 11:34:32 11:38:22 37° 71° (ENE) 11:42:14 145.980
QB50P1 29 Sep 11:38:17 11:42:18 47° 73° (ENE) 11:46:21 145.935-145.965
TIGRISAT 29 Sep 11:40:38 11:44:00 23° 265° (W) 11:47:22 435.000
FUNcube-1 29 Sep 11:41:29 11:44:29 19° 294° (WNW) 11:47:31 145.935
AIST 2 29 Sep 11:41:39 11:44:58 22° 45° (NE) 11:48:17 435.215
POPSAT HIP 1 29 Sep 11:51:49 11:55:59 67° 75° (ENE) 12:00:10 437.405
GONETS M04 29 Sep 11:52:53 11:57:03 14° 304° (NW) 12:01:14
CUBEBUG 1 29 Sep 11:53:54 11:56:00 13° 91° (E) 11:58:04 437.445
DELFI C3 29 Sep 12:00:03 12:03:13 23° 292° (WNW) 12:06:22 145.870
ESTCUBE 1 29 Sep 12:00:21 12:04:10 26° 95° (E) 12:07:56 437.505/2401.250
NANOSAT C BR1 29 Sep 12:06:56 12:11:08 86° 257° (WSW) 12:15:21 145.865
SPROUT 29 Sep 12:27:01 12:28:55 13° 90° (E) 12:30:49 437.525
HUMSAT D 29 Sep 12:29:58 12:33:23 24° 292° (WNW) 12:36:47 437.325/437.525
QB50P2 29 Sep 12:32:21 12:36:17 38° 262° (W) 12:40:14 145.880/145.840
POLYITAN 1 29 Sep 12:34:34 12:38:29 38° 262° (W) 12:42:25 437.675
JAS-2 29 Sep 12:35:10 12:41:42 75° 258° (WSW) 12:49:06 435.910
PHONESAT 2.4 29 Sep 12:43:02 12:45:57 64° 179° (S) 12:48:53 2401.200-2431.200
UKube-1 29 Sep 12:43:50 12:46:38 17° 93° (E) 12:49:25 .
AISAT 29 Sep 12:45:14 12:49:21 38° 98° (E) 12:53:26 437.250
AUBIESAT-1 29 Sep 12:54:38 12:56:19 13° 99° (E) 12:58:00 437.475
50 SAT 29 Sep 12:58:46 13:02:22 51° 100° (E) 13:05:54 437.505
Oscar 19 29 Sep 12:59:38 13:04:08 31° 67° (ENE) 13:08:39 437.125/150
PCSat 29 Sep 13:00:24 13:05:21 34° 51° (NE) 13:10:16 145.827
BUGSAT 1 29 Sep 13:05:17 13:09:15 48° 260° (W) 13:13:12 437.445
DUCHIFAT 1 29 Sep 13:11:16 13:14:11 18° 267° (W) 13:17:07 145.980
AO-7 29 Sep 13:14:23 13:14:40 10° 39° (NE) 13:14:57 29.400- 29.500
DX 1 29 Sep 13:14:42 13:18:54 47° 100° (E) 13:23:04 434.975-435.025
QB50P1 29 Sep 13:15:59 13:18:20 15° 268° (W) 13:20:42 145.935-145.965
AIST 2 29 Sep 13:19:38 13:23:38 43° 243° (WSW) 13:27:37 435.215
CUBEBUG 1 29 Sep 13:28:23 13:32:38 55° 287° (WNW) 13:36:50 437.445
VELOX 1 29 Sep 13:28:31 13:32:56 75° 285° (WNW) 13:37:18 145.980
POPSAT HIP 1 29 Sep 13:31:33 13:32:12 10° 271° (W) 13:32:51 437.405
M-CUBED/EXP-1 PRIME 29 Sep 13:32:16 13:35:30 54° 106° (ESE) 13:38:43 437.505
Cosmos 2504 29 Sep 13:32:56 13:33:51 10° 58° (ENE) 13:34:45 435.465 / 435.565
ESTCUBE 1 29 Sep 13:36:58 13:40:57 31° 292° (WNW) 13:44:55 437.505/2401.250
YUBILEINY 29 Sep 13:40:31 13:48:29 38° 71° (ENE) 13:56:22 435.215
TISAT 1 29 Sep 13:40:34 13:43:09 16° 92° (E) 13:45:44 437.305
Cosmos 2491 29 Sep 13:40:48 13:45:59 17° 76° (ENE) 13:51:10 435.465 / 435.565
ITAMSAT 1 29 Sep 13:58:26 14:01:21 15° 60° (ENE) 14:04:18 435.822/435.867
SPROUT 29 Sep 14:01:02 14:05:11 56° 287° (WNW) 14:09:21 437.525
Gurwin Techsat 1B 29 Sep 14:10:25 14:15:39 65° 73° (ENE) 14:20:57 435.225
UKube-1 29 Sep 14:18:47 14:22:53 43° 289° (WNW) 14:26:57 .
PHONESAT 2.4 29 Sep 14:19:05 14:21:54 42° 194° (SSW) 14:24:43 2401.200-2431.200
AISAT 29 Sep 14:22:20 14:25:34 20° 295° (WNW) 14:28:46 437.250
JAS-2 29 Sep 14:25:42 14:28:08 12° 278° (W) 14:30:39 435.910
AUBIESAT-1 29 Sep 14:27:57 14:30:55 31° 294° (WNW) 14:33:55 437.475
50 SAT 29 Sep 14:34:09 14:35:23 11° 296° (WNW) 14:36:38 437.505
Oscar 19 29 Sep 14:38:40 14:43:21 34° 263° (W) 14:48:04 437.125/150
PCSat 29 Sep 14:43:48 14:48:45 37° 249° (WSW) 14:53:40 145.827
ITUPSAT 1 29 Sep 14:49:20 14:52:39 18° 93° (E) 14:55:56 437.325
DX 1 29 Sep 14:51:56 14:54:42 17° 296° (WNW) 14:57:29 434.975-435.025
AO-7 29 Sep 14:57:35 15:05:15 43° 61° (ENE) 15:12:55 29.400- 29.500
SWISSCUBE 29 Sep 15:00:51 15:04:55 27° 95° (E) 15:08:58 437.505
SO-50 29 Sep 15:10:25 15:15:05 50° 118° (ESE) 15:19:44 436.795
BEESAT 29 Sep 15:13:27 15:17:45 32° 97° (E) 15:22:01 436.000
TISAT 1 29 Sep 15:15:03 15:19:00 43° 289° (WNW) 15:22:56 437.305
Cosmos 2504 29 Sep 15:21:27 15:28:50 61° 79° (ENE) 15:36:43 435.465 / 435.565
Cosmos 2491 29 Sep 15:32:38 15:41:25 87° 97° (E) 15:50:19 435.465 / 435.565
ITAMSAT 1 29 Sep 15:35:03 15:40:12 74° 257° (WSW) 15:45:24 435.822/435.867
YUBILEINY 29 Sep 15:37:13 15:45:26 49° 271° (W) 15:53:38 435.215
Gurwin Techsat 1B 29 Sep 15:52:53 15:56:04 16° 270° (W) 15:59:16 435.225
PHONESAT 2.4 29 Sep 15:56:09 15:57:33 13° 209° (SSW) 15:58:56 2401.200-2431.200
AIST 1 29 Sep 16:17:42 16:21:42 37° 77° (ENE) 16:25:39
MOZHAYETS 4 29 Sep 16:23:39 16:27:47 30° 96° (E) 16:31:52
ITUPSAT 1 29 Sep 16:26:05 16:30:44 49° 289° (WNW) 16:35:22 437.325
KKS-1 29 Sep 16:35:54 16:39:32 24° 95° (E) 16:43:07 437.445
SWISSCUBE 29 Sep 16:38:25 16:42:43 33° 292° (WNW) 16:47:00 437.505
O/OREOS (USA 219) 29 Sep 16:46:42 16:51:02 38° 61° (ENE) 16:55:19 437.305
AO-7 29 Sep 16:50:05 16:57:57 45° 260° (W) 17:05:50 29.400- 29.500
BEESAT 29 Sep 16:51:22 16:55:26 28° 293° (WNW) 16:59:30 436.000
SO-50 29 Sep 16:51:52 16:55:49 25° 316° (NW) 16:59:45 436.795
HORYU 2 29 Sep 16:54:13 16:58:08 33° 69° (ENE) 17:02:06 437.375
STARS 29 Sep 17:04:27 17:07:58 23° 95° (E) 17:11:28 437.465
NOAA 18 29 Sep 17:09:05 17:10:51 12° 55° (NE) 17:12:36 137.9125
Cosmos 2504 29 Sep 17:15:48 17:21:41 26° 276° (W) 17:27:53 435.465 / 435.565
GOMX 1 29 Sep 17:25:18 17:29:07 20° 65° (ENE) 17:32:47 467.674
NOAA 15 29 Sep 17:26:41 17:30:48 23° 63° (ENE) 17:34:56 137.62
Cosmos 2491 29 Sep 17:33:14 17:39:29 21° 298° (WNW) 17:45:48 435.465 / 435.565
DOVE 4 29 Sep 17:39:50 17:41:08 11° 61° (ENE) 17:42:26 437.250
BRITE-PL 29 Sep 17:43:31 17:49:09 64° 73° (ENE) 17:54:38 437.365/2234.400
CUBESAT XI-V 29 Sep 17:48:28 17:52:39 31° 96° (E) 17:56:47 437.345
CUTE-I 29 Sep 17:48:45 17:53:17 29° 66° (ENE) 17:57:50 437.470
Cubesat XI-IV 29 Sep 17:49:14 17:53:45 29° 66° (ENE) 17:58:18 437.490
AIST 1 29 Sep 17:56:08 17:58:58 17° 274° (W) 18:01:47
HO-68 29 Sep 17:58:01 17:59:09 10° 47° (NE) 18:00:18 435.675
MOZHAYETS 4 29 Sep 18:00:54 18:04:50 28° 292° (WNW) 18:08:45
RS-15 29 Sep 18:04:20 18:09:21 14° 93° (E) 18:14:26 29.354- 29.394
GONETS M04 29 Sep 18:05:28 18:09:13 13° 55° (NE) 18:12:56
KKS-1 29 Sep 18:12:11 18:16:06 32° 292° (WNW) 18:20:01 437.445
LilacSat-2 29 Sep 18:19:46 18:23:22 46° 73° (ENE) 18:27:00 437.200
O/OREOS (USA 219) 29 Sep 18:26:40 18:30:10 22° 259° (WSW) 18:33:39 437.305
Cosmos 2499 29 Sep 18:28:20 18:31:57 14° 61° (ENE) 18:35:40 435.465 / 435.565
HORYU 2 29 Sep 18:31:13 18:34:44 23° 265° (W) 18:38:17 437.375
STARS 29 Sep 18:40:28 18:44:21 32° 291° (WNW) 18:48:13 437.465
NOAA 18 29 Sep 18:45:08 18:50:35 77° 73° (ENE) 18:56:03 137.9125
CUSAT 1 29 Sep 18:46:24 18:52:14 37° 87° (E) 18:59:04 437.405
DANDE 29 Sep 18:57:01 19:00:05 15° 76° (ENE) 19:03:31 436.750
GOMX 1 29 Sep 19:01:33 19:06:49 55° 260° (W) 19:11:51 467.674
NOAA 15 29 Sep 19:05:08 19:10:16 48° 261° (W) 19:15:25 137.62
DOVE 4 29 Sep 19:13:12 19:18:12 90° 291° (WNW) 19:22:56 437.250
BRITE-PL 29 Sep 19:24:04 19:27:57 19° 269° (W) 19:31:47 437.365/2234.400
CUBESAT XI-V 29 Sep 19:25:58 19:29:55 27° 293° (WNW) 19:33:49 437.345
CUTE-I 29 Sep 19:28:19 19:33:11 37° 263° (W) 19:38:06 437.470
Cubesat XI-IV 29 Sep 19:28:49 19:33:41 37° 263° (W) 19:38:36 437.490
HO-68 29 Sep 19:38:23 19:45:16 52° 67° (ENE) 19:52:09 435.675
STRAND 1 29 Sep 19:38:41 19:42:34 21° 93° (E) 19:46:26 437.568
SEEDS 29 Sep 19:51:42 19:55:20 29° 69° (ENE) 19:59:00 437.485
CUTE 1.7 + AOD 2 29 Sep 19:53:34 19:57:34 43° 72° (ENE) 20:01:38 437.475
CANX-2 29 Sep 19:55:07 19:59:14 52° 73° (ENE) 20:03:23 2200.000
LilacSat-2 29 Sep 19:56:30 19:57:57 12° 269° (W) 19:59:23 437.200
GONETS M04 29 Sep 19:59:19 20:08:05 65° 78° (ENE) 20:16:44
RS-15 29 Sep 20:07:47 20:19:08 66° 115° (ESE) 20:31:08 29.354- 29.394
AAUSAT CUBESAT 2 29 Sep 20:08:43 20:12:04 24° 68° (ENE) 20:15:27 437.432
CINEMA 3 29 Sep 20:11:04 20:15:31 84° 257° (WSW) 20:19:49 145.822/145.860
ZACube-1 29 Sep 20:11:04 20:11:44 10° 61° (ENE) 20:12:24 437.345
Cosmos 2499 29 Sep 20:18:44 20:26:22 74° 81° (E) 20:34:34 435.465 / 435.565
ISS 29 Sep 20:23:33 20:26:47 71° 143° (SE) 20:30:02 145.825
CUSAT 1 29 Sep 20:27:50 20:34:03 45° 289° (WNW) 20:41:26 437.405
NOAA 18 29 Sep 20:29:04 20:31:49 14° 270° (W) 20:34:36 137.9125
DANDE 29 Sep 20:36:04 20:41:24 82° 281° (WNW) 20:48:32 436.750
AO-85 29 Sep 20:51:03 20:56:03 48° 118° (ESE) 21:00:46 145.980
COMPASS 1 29 Sep 20:54:07 20:58:17 82° 257° (WSW) 21:02:31 437.405
FUNcube-1 29 Sep 21:00:31 21:04:12 33° 70° (ENE) 21:07:56 145.935
CUBEBUG 2 29 Sep 21:04:57 21:09:08 81° 256° (WSW) 21:13:18 437.445
DELFI C3 29 Sep 21:11:43 21:14:30 18° 66° (ENE) 21:17:18 145.870
STRAND 1 29 Sep 21:17:01 21:21:58 47° 290° (WNW) 21:26:53 437.568
UWE-3 29 Sep 21:18:39 21:22:48 87° 255° (WSW) 21:26:59 435.000/436.395/437.385
HO-68 29 Sep 21:27:02 21:33:13 31° 265° (W) 21:39:26 435.675
SEEDS 29 Sep 21:27:35 21:31:01 24° 266° (W) 21:34:29 437.485
CUTE 1.7 + AOD 2 29 Sep 21:30:57 21:33:38 16° 268° (W) 21:36:19 437.475
PRISM 29 Sep 21:31:07 21:34:33 25° 96° (E) 21:37:55 437.425
CANX-2 29 Sep 21:33:16 21:35:24 13° 270° (W) 21:37:33 2200.000
Oscar 11 29 Sep 21:37:02 21:41:20 89° 276° (W) 21:45:41 145.826/435.025
ZACube-1 29 Sep 21:43:17 21:47:24 73° 259° (W) 21:51:34 437.345
AAUSAT CUBESAT 2 29 Sep 21:43:48 21:47:25 28° 264° (W) 21:51:05 437.432
HUMSAT D 29 Sep 21:46:08 21:49:20 22° 67° (ENE) 21:52:33 437.325/437.525
GONETS M04 29 Sep 21:57:10 22:04:11 28° 278° (W) 22:11:10
ISS 29 Sep 22:00:51 22:03:32 23° 341° (NNW) 22:06:14 145.825
Cosmos 2499 29 Sep 22:13:17 22:18:45 22° 278° (W) 22:24:29 435.465 / 435.565
RS-15 29 Sep 22:21:13 22:32:22 45° 321° (NW) 22:44:01 29.354- 29.394
DANDE 29 Sep 22:22:30 22:25:47 15° 306° (NW) 22:29:27 436.750
AO-85 29 Sep 22:32:23 22:36:42 27° 314° (NW) 22:40:47 145.980
UNISAT 6 29 Sep 22:35:51 22:39:00 19° 93° (E) 22:42:11 437.425
FUNcube-1 29 Sep 22:37:30 22:40:32 20° 267° (W) 22:43:36 145.935
DELFI C3 29 Sep 22:45:22 22:49:04 36° 263° (W) 22:52:48 145.870
CUBEBUG 1 29 Sep 22:50:44 22:52:49 13° 62° (ENE) 22:54:53 437.445
VELOX 1 29 Sep 22:53:10 22:54:23 11° 60° (ENE) 22:55:36 145.980
ESTCUBE 1 29 Sep 23:00:17 23:04:01 26° 67° (ENE) 23:07:46 437.505/2401.250
PRISM 29 Sep 23:06:17 23:09:48 27° 292° (WNW) 23:13:16 437.425
ANTELSAT 29 Sep 23:10:19 23:14:33 43° 99° (E) 23:18:51 437.575/2403.000
HUMSAT D 29 Sep 23:21:12 23:24:47 30° 264° (W) 23:28:26 437.325/437.525
SPROUT 29 Sep 23:21:59 23:23:19 11° 61° (ENE) 23:24:40 437.525
TIGRISAT 29 Sep 23:30:06 23:34:31 67° 101° (ESE) 23:39:00 435.000
50 SAT 29 Sep 23:36:02 23:38:59 23° 69° (ENE) 23:41:57 437.505
ISS 29 Sep 23:38:51 23:40:53 15° 1° (N) 23:42:55 145.825
UKube-1 29 Sep 23:39:07 23:41:48 16° 63° (ENE) 23:44:29 .
POPSAT HIP 1 29 Sep 23:39:11 23:39:39 10° 89° (E) 23:40:09 437.405
AUBIESAT-1 29 Sep 23:40:04 23:43:13 23° 64° (ENE) 23:46:14 437.475
SO-50 29 Sep 23:41:33 23:46:01 49° 52° (NE) 23:50:22 436.795
AISAT 29 Sep 23:42:45 23:46:51 37° 70° (ENE) 23:50:56 437.250
JAS-2 29 Sep 23:45:33 23:51:01 20° 87° (E) 23:56:16 435.910
NANOSAT C BR1 29 Sep 23:52:14 23:54:34 14° 91° (E) 23:56:54 145.865
DX 1 30 Sep 00:10:20 00:14:28 43° 71° (ENE) 00:18:38 434.975-435.025
UNISAT 6 30 Sep 00:11:42 00:15:51 41° 289° (WNW) 00:20:06 437.425
QB50P2 30 Sep 00:16:41 00:20:26 31° 96° (E) 00:24:12 145.880/145.840
M-CUBED/EXP-1 PRIME 30 Sep 00:18:25 00:22:31 83° 68° (ENE) 00:26:18 437.505
POLYITAN 1 30 Sep 00:18:51 00:22:38 31° 97° (E) 00:26:23 437.675
CUBEBUG 1 30 Sep 00:24:09 00:28:33 65° 259° (WSW) 00:32:57 437.445
VELOX 1 30 Sep 00:25:44 00:30:11 81° 258° (WSW) 00:34:39 145.980
TISAT 1 30 Sep 00:33:22 00:35:28 14° 63° (ENE) 00:37:34 437.305
BEESAT 2 30 Sep 00:36:02 00:38:43 18° 111° (ESE) 00:41:26 435.950
ESTCUBE 1 30 Sep 00:36:39 00:40:41 32° 264° (W) 00:44:46 437.505/2401.250
RS-15 30 Sep 00:39:50 00:49:15 25° 354° (N) 00:58:49 29.354- 29.394
BUGSAT 1 30 Sep 00:47:02 00:50:08 21° 95° (E) 00:53:14 437.445
ANTELSAT 30 Sep 00:47:50 00:50:58 19° 294° (WNW) 00:54:08 437.575/2403.000
DUCHIFAT 1 30 Sep 00:53:14 00:57:26 66° 102° (ESE) 01:01:35 145.980
SPROUT 30 Sep 00:54:25 00:58:39 72° 257° (WSW) 01:02:56 437.525
QB50P1 30 Sep 00:57:53 01:02:07 86° 100° (E) 01:06:21 145.935-145.965
TIGRISAT 30 Sep 01:08:39 01:10:41 13° 297° (WNW) 01:12:43 435.000
50 SAT 30 Sep 01:09:32 01:12:24 22° 265° (W) 01:15:18 437.505
POPSAT HIP 1 30 Sep 01:11:42 01:15:53 68° 286° (WNW) 01:20:04 437.405
BEESAT 3 30 Sep 01:11:54 01:15:48 88° 302° (WNW) 01:19:46 437.485
UKube-1 30 Sep 01:13:14 01:17:26 49° 260° (W) 01:21:39 .
AUBIESAT-1 30 Sep 01:14:11 01:17:35 27° 257° (WSW) 01:20:49 437.475
ISS 30 Sep 01:15:19 01:18:11 27° 22° (NNE) 01:21:02 145.825
AISAT 30 Sep 01:20:01 01:23:24 21° 266° (W) 01:26:48 437.250
SO-50 30 Sep 01:22:54 01:26:06 19° 250° (WSW) 01:29:15 436.795
NANOSAT C BR1 30 Sep 01:26:31 01:30:33 48° 288° (WNW) 01:34:36 145.865
JAS-2 30 Sep 01:28:57 01:36:52 84° 286° (WNW) 01:44:20 435.910
Cosmos 2491 30 Sep 01:42:46 01:51:11 45° 74° (ENE) 01:59:29 435.465 / 435.565
DX 1 30 Sep 01:47:57 01:50:52 17° 267° (W) 01:53:47 434.975-435.025
QB50P2 30 Sep 01:52:45 01:56:06 23° 293° (WNW) 01:59:26 145.880/145.840
POLYITAN 1 30 Sep 01:54:56 01:58:16 23° 293° (WNW) 02:01:37 437.675
ITUPSAT 1 30 Sep 01:56:26 02:00:09 23° 65° (ENE) 02:03:53 437.325
TISAT 1 30 Sep 02:06:32 02:10:38 56° 259° (W) 02:14:46 437.305
SWISSCUBE 30 Sep 02:07:36 02:11:50 33° 68° (ENE) 02:16:05 437.505
BEESAT 2 30 Sep 02:12:28 02:16:13 41° 308° (NW) 02:20:01 435.950
BEESAT 30 Sep 02:20:06 02:24:30 39° 69° (ENE) 02:28:56 436.000
BUGSAT 1 30 Sep 02:22:01 02:25:32 30° 290° (WNW) 02:29:03 437.445
Gurwin Techsat 1B 30 Sep 02:26:47 02:31:06 25° 94° (E) 02:35:24 435.225
DUCHIFAT 1 30 Sep 02:30:58 02:32:34 12° 298° (WNW) 02:34:09 145.980
YUBILEINY 30 Sep 02:41:58 02:50:01 42° 87° (E) 02:58:02 435.215
Oscar 19 30 Sep 02:49:07 02:54:18 82° 104° (ESE) 02:59:25 437.125/150
ISS 30 Sep 02:51:37 02:54:49 52° 219° (SW) 02:58:01 145.825
BEESAT 3 30 Sep 02:52:30 02:54:04 12° 322° (NW) 02:55:38 437.485
RS-15 30 Sep 02:56:12 03:07:03 34° 29° (NNE) 03:17:49 29.354- 29.394
JAS-2 30 Sep 03:15:30 03:20:41 20° 305° (NW) 03:25:46 435.910
AIST 2 30 Sep 03:17:21 03:21:02 33° 115° (ESE) 03:24:45 435.215
MOZHAYETS 4 30 Sep 03:25:54 03:29:54 30° 68° (ENE) 03:33:55
ITUPSAT 1 30 Sep 03:33:16 03:37:44 40° 262° (W) 03:42:15 437.325
KKS-1 30 Sep 03:34:25 03:38:00 24° 67° (ENE) 03:41:36 437.445
Cosmos 2491 30 Sep 03:39:51 03:47:55 41° 274° (W) 03:55:55 435.465 / 435.565
PCSat 30 Sep 03:43:03 03:47:31 27° 108° (ESE) 03:51:59 145.827
SWISSCUBE 30 Sep 03:45:36 03:49:37 27° 264° (W) 03:53:41 437.505
ITAMSAT 1 30 Sep 03:47:35 03:52:26 38° 98° (E) 03:57:16 435.822/435.867
BEESAT 30 Sep 03:58:41 04:02:24 23° 266° (W) 04:06:09 436.000
Cosmos 2504 30 Sep 04:00:50 04:07:49 49° 90° (E) 04:14:38 435.465 / 435.565
STARS 30 Sep 04:01:36 04:05:02 23° 66° (ENE) 04:08:28 437.465
Gurwin Techsat 1B 30 Sep 04:06:12 04:11:12 43° 291° (WNW) 04:16:11 435.225
Oscar 19 30 Sep 04:30:24 04:32:54 14° 301° (WNW) 04:35:24 437.125/150
YUBILEINY 30 Sep 04:38:30 04:46:44 44° 287° (WNW) 04:55:00 435.215
AIST 1 30 Sep 04:47:49 04:51:13 22° 88° (E) 04:54:38
AO-7 30 Sep 04:50:27 04:58:41 62° 104° (ESE) 05:06:52 29.400- 29.500
CUBESAT XI-V 30 Sep 04:51:58 04:56:09 33° 69° (ENE) 05:00:22 437.345
AIST 2 30 Sep 04:56:04 04:59:32 26° 313° (NW) 05:03:04 435.215
MOZHAYETS 4 30 Sep 05:03:10 05:07:02 27° 265° (W) 05:10:56
RS-15 30 Sep 05:09:13 05:21:43 83° 56° (ENE) 05:33:52 29.354- 29.394
KKS-1 30 Sep 05:10:25 05:14:25 32° 263° (W) 05:18:25 437.445
CUSAT 1 30 Sep 05:20:33 05:27:06 30° 65° (ENE) 05:32:43 437.405
AO-85 30 Sep 05:22:51 05:26:48 39° 50° (NE) 05:30:31 145.980
PCSat 30 Sep 05:25:28 05:30:39 45° 306° (NW) 05:35:52 145.827
ITAMSAT 1 30 Sep 05:27:20 05:31:44 28° 295° (WNW) 05:36:08 435.822/435.867
DANDE 30 Sep 05:32:06 05:38:00 21° 60° (ENE) 05:43:38 436.750
STARS 30 Sep 05:37:13 05:41:11 34° 262° (W) 05:45:12 437.465
BRITE-PL 30 Sep 05:49:56 05:53:02 17° 90° (E) 05:55:59 437.365/2234.400
Cosmos 2504 30 Sep 05:55:08 06:01:25 30° 289° (WNW) 06:07:36 435.465 / 435.565
CUTE-I 30 Sep 06:08:12 06:08:50 10° 87° (E) 06:09:28 437.470
Cubesat XI-IV 30 Sep 06:08:49 06:09:30 10° 88° (E) 06:10:11 437.490
